Home > Weather > Vernier > Past weeks

Flag for Switzerland Past Weather in Vernier, Geneva, Switzerland — Yesterday and Last 2 Weeks

Now
72 °F

Partly sunny.


Feels Like: 77 °F
Forecast: 54 / 78 °F
Wind: 3 mph from Northeast

Location: Geneva Cointrin Airport

Current Time: Jun 27, 2016 at 8:35:59 PM

Latest Report: Jun 27, 2016 at 7:50 PM


Visibility: N/A

Pressure: 30.15 "Hg

Humidity: 50%

Dew Point: 52 °F

Location of VernierLocation

Past Weather in Vernier — Graph

°F

Vernier Temperature Yesterday

Maximum temperature yesterday: 72 °F (at 2:20 PM)
Minimum temperature yesterday: 54 °F (at 5:50 AM)
Average temperature yesterday: 64 °F

High & Low Weather Summary for the Past Weeks

 TemperatureHumidityPressure
High90 °F (Jun 23, 6:20 PM)100% (Jun 16, 5:50 AM)30.27 "Hg (Jun 16, 5:50 AM)
Low48 °F (Jun 20, 4:20 AM)29% (Jun 24, 4:20 PM)29.59 "Hg (Jun 15, 5:50 PM)
Average64 °F71%30.01 "Hg
* Reported Jun 12 7:20 PM — Jun 27 7:20 PM, Vernier, Weather by CustomWeather, © 2016

Note: Actual official high and low records may vary slightly from our data, if they occured in-between our weather recording intervals... More about our weather records

Advertising

Vernier Weather History for the Previous 24 Hours

Scroll right to see more
 ConditionsComfort  
Time TempWeatherWind HumidityBarometerVisibility
7:20 PM
Mon, Jun 27
73 °FScattered clouds.6 mph41%30.15 "HgN/A
6:50 PM73 °FPartly sunny.6 mph38%30.15 "HgN/A
6:20 PM73 °FScattered clouds.6 mph38%30.15 "HgN/A
5:50 PM75 °FScattered clouds.7 mph39%30.15 "HgN/A
5:20 PM73 °FScattered clouds.7 mph38%30.15 "HgN/A
4:50 PM73 °FPassing clouds.8 mph38%30.15 "HgN/A
4:20 PM73 °FPassing clouds.9 mph38%30.15 "HgN/A
3:50 PM73 °FPassing clouds.9 mph41%30.15 "HgN/A
3:20 PM72 °FPassing clouds.10 mph38%30.15 "HgN/A
2:50 PM72 °FScattered clouds.8 mph41%30.18 "HgN/A
2:20 PM72 °FScattered clouds.6 mph41%30.18 "HgN/A
1:50 PM72 °FScattered clouds.7 mph41%30.18 "HgN/A
1:20 PM70 °FScattered clouds.8 mph43%30.18 "HgN/A
12:50 PM70 °FScattered clouds.9 mph43%30.18 "HgN/A
12:20 PM70 °FPassing clouds.8 mph46%30.18 "HgN/A
11:50 AM68 °FPassing clouds.8 mph43%30.21 "HgN/A
11:20 AM68 °FPassing clouds.9 mph46%30.21 "HgN/A
10:50 AM66 °FPassing clouds.7 mph49%30.21 "HgN/A
10:20 AM66 °FPassing clouds.5 mph56%30.21 "HgN/A
9:50 AM66 °FPassing clouds.6 mph52%30.21 "HgN/A
9:20 AM64 °FPassing clouds.3 mph60%30.21 "HgN/A
8:50 AM63 °FPassing clouds.3 mph73%30.21 "HgN/A
8:20 AM61 °FPassing clouds.2 mph77%30.21 "HgN/A
7:50 AM61 °FScattered clouds.2 mph72%30.18 "HgN/A
7:20 AM59 °FPassing clouds.1 mph72%30.18 "HgN/A
6:50 AM55 °FPassing clouds.1 mph82%30.18 "HgN/A
6:20 AM54 °FPassing clouds.1 mph88%30.18 "HgN/A
5:50 AM54 °FPassing clouds.2 mph88%30.18 "HgN/A
5:20 AM54 °FPassing clouds.1 mph88%30.18 "HgN/A
4:50 AM55 °FPassing clouds.1 mph82%30.15 "HgN/A
4:20 AM57 °FPassing clouds.1 mph82%30.18 "HgN/A
3:50 AM57 °FPassing clouds.3 mph77%30.18 "HgN/A
2:50 AM55 °FPassing clouds.1 mph82%30.15 "HgN/A
2:20 AM57 °FPassing clouds.1 mph77%30.18 "HgN/A
1:50 AM57 °FPassing clouds.2 mph77%30.18 "HgN/A
1:20 AM59 °FPassing clouds.2 mph72%30.15 "HgN/A
12:50 AM63 °FPassing clouds.2 mph59%30.15 "HgN/A
12:20 AM63 °FPassing clouds.5 mph59%30.15 "HgN/A
11:50 PM
Sun, Jun 26
63 °FPassing clouds.5 mph59%30.15 "HgN/A
11:20 PM63 °FPassing clouds.3 mph56%30.15 "HgN/A
10:50 PM63 °FPassing clouds.5 mph56%30.15 "HgN/A
10:20 PM64 °FPartly sunny.5 mph52%30.15 "HgN/A
9:50 PM66 °FPartly sunny.5 mph49%30.12 "HgN/A
9:20 PM66 °FScattered clouds.5 mph49%30.12 "HgN/A
8:50 PM66 °FScattered clouds.5 mph52%30.12 "HgN/A
8:20 PM68 °FScattered clouds.6 mph49%30.09 "HgN/A
Weather by CustomWeather, © 2016

See weather overviewHow to use our weather pages